TimeHST,TemperatureF,Dew PointF,Humidity,Sea Level PressureIn,VisibilityMPH,Wind Direction,Wind SpeedMPH,Gust SpeedMPH,PrecipitationIn,Events,Conditions,WindDirDegrees,DateUTC
12:56 AM,75.0,42.1,31,29.95,10.0,SE,6.9,-,N/A,,Clear,130,2012-11-03 10:56:00
1:56 AM,75.0,43.0,32,29.94,10.0,ESE,6.9,-,N/A,,Clear,120,2012-11-03 11:56:00
2:56 AM,75.0,39.9,28,29.92,10.0,SE,5.8,-,N/A,,Clear,130,2012-11-03 12:56:00
3:56 AM,73.9,45.0,35,29.91,10.0,ESE,5.8,-,N/A,,Clear,120,2012-11-03 13:56:00
4:56 AM,75.0,46.0,36,29.90,10.0,SE,6.9,-,N/A,,Clear,130,2012-11-03 14:56:00
5:56 AM,73.9,46.0,37,29.91,10.0,ESE,5.8,-,N/A,,Clear,120,2012-11-03 15:56:00
6:56 AM,73.9,48.9,41,29.94,10.0,ESE,4.6,-,N/A,,Clear,120,2012-11-03 16:56:00
7:56 AM,78.1,48.9,36,29.96,10.0,ESE,5.8,-,N/A,,Clear,120,2012-11-03 17:56:00
8:56 AM,80.1,44.1,28,29.97,10.0,SE,9.2,-,N/A,,Clear,140,2012-11-03 18:56:00
9:56 AM,82.0,41.0,23,29.99,10.0,SE,9.2,-,N/A,,Clear,140,2012-11-03 19:56:00
10:56 AM,82.0,37.9,21,29.98,10.0,South,11.5,-,N/A,,Clear,190,2012-11-03 20:56:00
11:56 AM,84.0,23.0,11,29.96,10.0,South,11.5,17.3,N/A,,Partly Cloudy,190,2012-11-03 21:56:00
12:56 PM,84.0,21.9,10,29.94,10.0,South,9.2,-,N/A,,Clear,190,2012-11-03 22:56:00
1:56 PM,84.0,26.1,12,29.92,10.0,South,8.1,16.1,N/A,,Clear,170,2012-11-03 23:56:00
2:56 PM,84.0,19.0,9,29.91,10.0,South,11.5,17.3,N/A,,Clear,170,2012-11-04 00:56:00
3:56 PM,82.0,19.9,10,29.91,10.0,South,12.7,-,N/A,,Clear,180,2012-11-04 01:56:00
4:56 PM,81.0,34.0,18,29.91,10.0,South,10.4,-,N/A,,Clear,170,2012-11-04 02:56:00
5:56 PM,80.1,55.9,43,29.93,10.0,SSE,5.8,-,N/A,,Clear,160,2012-11-04 03:56:00
6:56 PM,77.0,55.0,47,29.95,10.0,SSE,5.8,-,N/A,,Clear,150,2012-11-04 04:56:00
7:56 PM,77.0,54.0,45,29.97,10.0,SE,4.6,-,N/A,,Clear,140,2012-11-04 05:56:00
8:56 PM,75.0,53.1,46,29.98,10.0,Calm,Calm,-,N/A,,Clear,0,2012-11-04 06:56:00
9:56 PM,75.9,53.1,45,29.99,10.0,East,5.8,-,N/A,,Overcast,100,2012-11-04 07:56:00
10:56 PM,75.0,52.0,44,29.99,10.0,East,4.6,-,N/A,,Clear,80,2012-11-04 08:56:00
11:56 PM,73.9,51.1,45,29.98,10.0,East,4.6,-,N/A,,Partly Cloudy,80,2012-11-04 09:56:00